Voltar ao catálogo

STARLINK-32958

AtivoComunicaçõesVLEO
NORAD 63563·PAYLOAD·🇺🇸 United States

Lançado Apr 13, 2025 de Cape Canaveral Space Force Station

Loading…

Próximas Passagens (próximas 24 horas)

TLE

AtualizadoSource: CelesTrak SupGP

Época: Sep 14, 2026, 23:00 UTC

1 63563C 25075R   26257.95881944  .00035068  00000+0  12703-2 0  2575
2 63563  43.0000 281.7323 0001423 263.0991 101.2598 15.27556031    10

Acompanhe STARLINK-32958 em tempo real com AllMySat

Download on the App Store